Terug naar catalogus

NOAA 16 DEB

ActiefSSO
NORAD 42350·DEBRIS·🇺🇸 United States

Gelanceerd Sep 21, 2000 vanaf Vandenberg Space Force Base

Loading…

Volgende Passages (komende 24 uur)

TLE

VerouderendSource: Space-Track

Epoch: Sep 5, 2026, 05:03 UTC

1 42350U 00055QS  26248.21078079  .00000430  00000-0  26378-3 0  9996
2 42350  98.6555 230.3524 0026234   6.8924 353.2603 14.10664357507549

Volg NOAA 16 DEB in realtime met AllMySat

Download on the App Store